#timestamp,LO_Frequency,Hit,StdDev 
1675792815.2,286047001.4,N
1675792835.0,286047001.4,N
1675792835.9,286047001.4,N
1675792855.8,286047005.2,N
1675792875.6,286047001.6,N
1675792895.4,286047001.4,N
1675792915.3,286047002.5,N
1675792935.1,286047003.6,N
1675792955.9,286047005.2,N
1675792975.7,286047004.5,N
1675792995.5,286047004.5,N
1675793015.4,286047006.7,Y
1675793035.2,286047003.2,P
1675793055.0,286047003.9,P
1675793056.0,286047003.9,P
1675793075.8,286046998.1,Y
1675793095.6,286046995.3,P
1675793115.5,286047000.8,N
1675793135.3,286046996.7,N
1675793155.1,286047001.3,N
1675793175.9,286047000.3,N
1675793195.7,286047000.7,N
1675793215.6,286047001.5,N
1675793235.4,286047008.8,Y
1675793255.2,286047003.3,P
1675793275.1,286047003.0,N
1675793276.0,286047003.0,N
1675793295.8,286047004.1,Y
1675793315.6,286047002.3,P
1675793335.5,286047002.6,P
1675793355.3,286047002.0,P
1675793375.2,286047001.9,Y
1675793395.9,286046998.1,P
1675793415.7,286047001.6,N
1675793435.6,286047001.5,N
1675793455.4,286047007.6,Y
1675793475.2,286047005.8,P
1675793495.1,286047006.0,N
1675793496.0,286047006.0,N
1675793515.8,286047008.6,Y
1675793535.7,286047005.0,P
1675793555.5,286047003.6,P
1675793575.3,286047006.7,P
1675793595.2,286047010.7,Y
1675793615.0,286047005.4,P
1675793615.9,286047005.4,P
1675793635.8,286047006.0,P
1675793655.6,286047003.7,Y
1675793675.4,286046998.6,P
1675793695.3,286047000.5,N
1675793715.1,286046994.2,N
1675793735.8,286046992.0,N
1675793755.7,286046997.9,N
1675793775.5,286046995.5,N
1675793795.4,286046992.7,N
1675793815.2,286046996.1,N
1675793835.0,286046993.4,N
1675793835.9,286046993.4,N
1675793855.8,286046991.9,N
1675793875.6,286046990.2,N
1675793895.5,286046990.6,N
1675793915.3,286046990.8,N
1675793935.1,286046992.5,N
1675793955.9,286046990.8,N
1675793975.7,286046993.4,N
1675793995.5,286046996.5,N
1675794015.4,286046999.1,N
1675794035.2,286046998.3,N
1675794055.1,286046997.9,N
1675794056.0,286046997.9,N
1675794075.8,286046997.6,N
1675794095.6,286047000.9,N
1675794115.5,286047000.3,N
1675794135.3,286046997.0,N
1675794155.2,286047001.9,N
1675794175.9,286047001.4,N
1675794195.7,286047001.8,N
1675794215.6,286047001.3,N
1675794235.4,286047005.2,N
1675794255.2,286047007.6,N
1675794275.1,286047004.7,N
1675794276.0,286047004.7,N
1675794295.8,286047005.0,N
1675794315.7,286047002.9,N
1675794335.5,286047007.6,N
1675794355.3,286047005.0,N
1675794375.2,286047010.2,N
1675794395.9,286047015.4,N
1675794415.7,286047013.5,N
1675794435.6,286047015.9,N
1675794455.4,286047019.8,N
1675794475.3,286047015.6,N
1675794495.1,286047009.5,N
1675794496.0,286047009.5,N
1675794515.8,286047009.7,N
1675794535.7,286047010.4,N
1675794555.5,286047013.1,N
1675794575.3,286047011.0,N
1675794595.2,286047014.2,N
1675794615.0,286047015.3,N
1675794615.9,286047015.3,N
1675794635.8,286047011.9,N
1675794655.6,286047013.0,N
1675794675.4,286047015.3,N
1675794695.3,286047015.1,N
1675794715.1,286047013.2,N
1675794735.9,286047011.6,N
1675794755.7,286047013.6,N
1675794775.5,286047016.8,Y
1675794795.4,286047004.7,P
1675794815.2,286047007.1,N
1675794835.0,286047008.3,P
1675794835.9,286047008.3,Y
1675794855.8,286046998.2,P
1675794875.6,286046999.2,N
1675794895.5,286046989.3,N
1675794915.3,286047002.9,N
1675794935.2,286047003.6,N
1675794955.9,286047004.0,N
1675794975.7,286047003.2,N
1675794995.6,286047004.0,N
1675795015.4,286047008.8,N
1675795035.2,286047012.4,N
1675795055.1,286047013.7,N
1675795056.0,286047013.7,N
1675795075.8,286047007.5,N
1675795095.7,286047011.9,N
1675795115.5,286047007.7,N
1675795135.3,286047007.3,N
1675795155.2,286047011.5,N
1675795175.0,286047010.5,N
1675795175.9,286047010.5,N
1675795195.7,286047007.8,N
1675795215.6,286047008.8,N
1675795235.4,286047011.4,N
1675795255.3,286047011.9,N
1675795275.1,286047016.9,Y
1675795276.0,286047016.9,P
1675795295.8,286047008.3,N
1675795315.7,286047007.7,N
1675795335.5,286047009.8,N
1675795355.3,286047014.4,Y
1675795375.2,286047009.1,P
1675795395.0,286047009.0,P
1675795395.9,286047009.0,P
1675795415.8,286047008.5,Y
1675795435.6,286046998.1,P
1675795455.4,286046998.3,N
1675795475.3,286046998.7,N
1675795495.1,286046998.1,N
1675795515.9,286047002.6,N
1675795535.7,286047002.8,N
1675795555.5,286046997.2,N
1675795575.4,286046997.1,N
1675795595.2,286046996.2,N
1675795615.0,286046996.0,N
1675795615.9,286046996.0,N
1675795635.8,286046998.0,N
1675795655.6,286047003.9,N
1675795675.5,286047002.4,N
1675795695.3,286046999.7,N
1675795715.1,286046998.7,N
1675795735.9,286046999.3,N
1675795755.7,286046998.4,N
1675795775.5,286047001.3,N
1675795795.4,286046999.9,N
1675795815.2,286047002.6,N
1675795835.0,286047002.8,N
1675795836.0,286047002.8,N
1675795855.8,286047001.8,N
1675795875.6,286047002.3,N
1675795895.5,286047006.8,N
1675795915.3,286047010.0,Y
1675795935.1,286047006.8,P
1675795955.9,286047007.5,N
1675795975.7,286047005.1,N
1675795995.6,286047004.8,N
1675796015.4,286047005.7,N
1675796035.2,286047009.8,Y
1675796055.1,286047007.2,P
1675796056.0,286047007.2,P
1675796075.8,286047009.2,P
1675796095.6,286047004.6,Y
1675796115.5,286047000.2,P
1675796135.3,286046999.6,N
1675796155.2,286046998.9,N
1675796175.9,286046996.7,N
1675796195.7,286046999.5,N
1675796215.6,286046995.1,N
1675796235.4,286046995.9,N
1675796255.2,286046998.3,N
1675796275.1,286047002.9,N
1675796276.0,286047002.9,N
1675796295.8,286047010.8,Y
1675796315.7,286047006.1,P
1675796335.5,286047007.0,N
1675796355.3,286047006.9,N
1675796375.2,286047007.1,N
1675796395.0,286047012.0,Y
1675796395.9,286047012.0,P
